Location: Bremen
(53.0793°N, 8.8017°E)
Time: 12:34:13
(UTC+02:00)

Altair - Pass Details

Date: 20 April 2024
Orbit: 1501 x 1682 km, 47.2° (Epoch: 17 May)

Event Time Altitude Azimuth Distance (km) Brightness Sun altitude
Rises 23:59:26 0° 269° (W) 4,877 10.4 -22.9°
Reaches altitude 10° 00:02:39 10° 266° (W) 3,869 9.8 -23.0°
Maximum altitude 00:12:15 61° 190° (S) 1,773 7.5 -23.5°
Enters shadow 00:18:02 26° 120° (ESE) 2,711 8.4 -23.8°
Drops below altitude 10° 00:21:29 10° 113° (ESE) 3,725 - -24.0°
Sets 00:24:31 0° 110° (ESE) 4,687 - -24.1°
